#timestamp,LO_Frequency,Hit,StdDev 
1618349555.6,286047021.0,P
1618349575.4,286047023.2,P
1618349595.2,286047020.9,P
1618349615.1,286047020.9,Y
1618349616.0,286047020.9,P
1618349635.8,286047000.3,N
1618349655.7,286047000.0,N
1618349675.5,286047000.1,N
1618349695.3,286047001.9,N
1618349715.2,286046999.7,N
1618349735.0,286047003.4,N
1618349735.9,286047003.4,N
1618349755.8,286047003.3,N
1618349775.6,286047005.2,N
1618349795.4,286047003.7,N
1618349815.3,286047001.9,N
1618349835.1,286047001.4,N
1618349855.8,286047003.1,N
1618349875.7,286047003.3,N
1618349895.5,286047005.6,N
1618349915.4,286047005.8,N
1618349935.2,286047003.4,N
1618349955.0,286047004.0,N
1618349955.9,286047004.0,N
1618349975.8,286047003.6,N
1618349995.6,286047005.3,N
1618350015.4,286047004.9,N
1618350035.3,286047005.7,N
1618350055.1,286047004.6,N
1618350075.9,286047006.3,N
1618350095.7,286047006.9,N
1618350115.5,286047006.4,N
1618350135.4,286047006.1,N
1618350155.2,286047009.0,N
1618350175.0,286047006.2,N
1618350175.9,286047006.2,N
1618350195.8,286047009.0,Y
1618350215.6,286047004.4,P
1618350235.5,286047002.2,P
1618350255.3,286047002.8,N
1618350275.1,286047002.3,N
1618350295.9,286047002.4,N
1618350315.7,286047004.3,Y
1618350335.5,286047002.6,P
1618350355.4,286047002.6,P
1618350375.2,286047002.6,P
1618350395.1,286047000.2,N
1618350396.0,286047000.2,N
1618350415.8,286047001.0,N
1618350435.6,286046999.9,N
1618350455.5,286047002.8,N
1618350475.3,286047004.3,Y
1618350495.1,286047001.6,P
1618350515.9,286047001.6,P
1618350535.7,286047002.2,P
1618350555.6,286047002.4,Y
1618350575.4,286047000.7,P
1618350595.2,286047001.1,N
1618350615.1,286047002.1,P
1618350616.0,286047002.1,Y
1618350635.8,286047000.7,P
1618350685.7,286047001.0,E
1618350695.6,286047000.4,N
1618350715.4,286047002.3,P
1618350735.3,286047002.2,N
1618350755.1,286047001.8,N
1618350775.8,286046999.7,N
1618350795.7,286046999.9,N
1618350815.5,286047001.2,N
1618350835.4,286047000.5,N
1618350855.2,286047002.0,N
1618350875.0,286047003.8,Y
1618350875.9,286047003.8,P
1618350895.8,286046999.9,N
1618350915.6,286046999.7,N
1618350935.4,286047001.6,N
1618350955.3,286047001.7,N
1618350975.1,286047002.6,N
1618350995.9,286047004.1,Y
1618351015.7,286047002.0,P
1618351035.5,286047004.4,P
1618351055.4,286047003.9,P
1618351075.2,286047001.3,N
1618351095.0,286047002.6,N
1618351096.0,286047002.6,N
1618351115.8,286047001.8,N
1618351135.6,286047005.5,Y
1618351155.5,286047002.4,P
1618351175.3,286047001.4,P
1618351195.1,286047001.4,N
